San Francisco, CA

7:37 AM PST on February 23, 2017 (GMT -0800)
San Francisco International

Weather History for KSFO - January, 2006

Change the Weather History Date:

Friday, January 6, 2006

  Actual Average Record
Temperature  
Mean Temperature 52 °F 50 °F  
Max Temperature 59 °F 56 °F 66 °F (2003)
Min Temperature 45 °F 44 °F 29 °F (1950)
Degree Days  
Heating Degree Days 13 15  
Month to date heating degree days 69 90  
Since 1 July heating degree days 947 1100  
Cooling Degree Days 0 0  
Month to date cooling degree days 0 0  
Year to date cooling degree days 0 0  
Growing Degree Days 2 (Base 50)    
Moisture  
Dew Point 49 °F    
Average Humidity 83    
Maximum Humidity 93    
Minimum Humidity 72    
Precipitation  
Precipitation 0.01 in 0.13 in 2.34 in (1993)
Month to date precipitation 1.18 0.82  
Year to date precipitation 1.18 0.82  
Since 1 July precipitation 11.91  
Snow  
Snow 0.00 in - 0.00 in ()
Month to date snowfall 0.0  
Since 1 July snowfall 0.0  
Snow Depth 0.00 in    
Sea Level Pressure  
Sea Level Pressure 30.07 in    
Wind  
Wind Speed 3 mph (West)    
Max Wind Speed 16 mph    
Max Gust Speed 20 mph    
Visibility 9 miles    
Events Rain    
T = Trace of Precipitation, MM = Missing Value Source: NWS Daily Summary

Daily Weather History Graph

Daily Weather History Graph

Search for Another Location

Airport or City:

Trip Planner

Search our weather history database for the weather conditions in past years. The results will help you decide how hot, cold, wet, or windy it might be!

Date:

Astronomy

Jan. 06, 2006 Rise Set
Actual Time 7:24 AM PST 5:06 PM PST
Civil Twilight 6:55 AM PST 5:35 PM PST
Nautical Twilight 6:23 AM PST 6:07 PM PST
Astronomical Twilight 5:51 AM PST 6:39 PM PST
Moon 11:44 AM PST (1/6) No Moon Set
Length of Visible Light 10h 39m
Length of Day
9h 41m
Waxing Crescent, 50% of the Moon is Illuminated
Jan 6
Waxing Crescent
Jan 14
Full
Jan 22
Last Quarter
Jan 29
New
Feb 4
First Quarter

Hourly Weather History & Observations

Time (PST) Temp. Windchill Dew Point Humidity Pressure Visibility Wind Dir Wind Speed Gust Speed Precip Events Conditions
12:56 AM 50.0 °F - 46.9 °F 89% 30.20 in 7.0 mi SSE 4.6 mph - N/A   Scattered Clouds
1:56 AM 48.9 °F - 46.0 °F 90% 30.18 in 8.0 mi Calm Calm - N/A   Scattered Clouds
2:56 AM 50.0 °F - 46.9 °F 89% 30.17 in 8.0 mi Calm Calm - N/A   Scattered Clouds
3:56 AM 46.0 °F - 44.1 °F 93% 30.16 in 8.0 mi Calm Calm - N/A   Scattered Clouds
4:56 AM 48.9 °F - 46.0 °F 90% 30.15 in 8.0 mi Calm Calm - N/A   Scattered Clouds
5:56 AM 46.0 °F 44.8 °F 45.0 °F 96% 30.14 in 5.0 mi South 3.5 mph - N/A   Scattered Clouds
6:56 AM 46.9 °F - 45.0 °F 93% 30.12 in 8.0 mi Calm Calm - N/A   Scattered Clouds
7:56 AM 48.0 °F - 46.0 °F 93% 30.13 in 8.0 mi Calm Calm - N/A   Scattered Clouds
8:56 AM 50.0 °F - 48.0 °F 93% 30.14 in 7.0 mi Calm Calm - N/A   Mostly Cloudy
9:56 AM 53.1 °F - 48.9 °F 86% 30.14 in 8.0 mi Calm Calm - N/A   Scattered Clouds
10:56 AM 54.0 °F - 50.0 °F 86% 30.12 in 10.0 mi Calm Calm - N/A   Scattered Clouds
11:56 AM 55.0 °F - 51.1 °F 86% 30.08 in 9.0 mi ENE 3.5 mph - N/A   Partly Cloudy
12:56 PM 57.0 °F - 51.1 °F 81% 30.06 in 8.0 mi North 4.6 mph - N/A   Partly Cloudy
1:56 PM 55.9 °F - 51.1 °F 84% 30.03 in 8.0 mi NNE 4.6 mph - N/A   Partly Cloudy
2:56 PM 57.9 °F - 50.0 °F 75% 30.01 in 10.0 mi Calm Calm - N/A   Partly Cloudy
3:56 PM 57.9 °F - 48.9 °F 72% 30.00 in 10.0 mi Calm Calm - N/A   Partly Cloudy
4:56 PM 57.9 °F - 51.1 °F 78% 29.99 in 9.0 mi NW 6.9 mph - N/A   Scattered Clouds
5:56 PM 54.0 °F - 50.0 °F 86% 29.99 in 10.0 mi WNW 12.7 mph - N/A   Scattered Clouds
6:56 PM 54.0 °F - 50.0 °F 86% 29.99 in 10.0 mi WNW 10.4 mph - N/A   Scattered Clouds
7:56 PM 53.1 °F - 48.9 °F 86% 30.00 in 10.0 mi NW 9.2 mph - N/A   Scattered Clouds
8:56 PM 53.1 °F - 48.9 °F 86% 30.00 in 10.0 mi NW 3.5 mph - N/A   Mostly Cloudy
9:45 PM 53.6 °F - 50.0 °F 88% 30.00 in 10.0 mi Calm Calm - 0.00 in Rain Light Rain
9:56 PM 55.0 °F - 51.1 °F 86% 30.00 in 10.0 mi South 3.5 mph - 0.00 in Rain Light Rain
10:28 PM 55.4 °F - 51.8 °F 88% 30.00 in 10.0 mi South 3.5 mph - 0.00 in Rain Light Rain
10:56 PM 55.9 °F - 53.1 °F 90% 30.00 in 10.0 mi WSW 8.1 mph - 0.00 in Rain Light Rain
11:56 PM 55.9 °F - 53.1 °F 90% 30.00 in 6.0 mi WSW 6.9 mph - 0.00 in Rain Light Rain